Location: Boulin
(43.2500°N, 0.1333°E)
Time: 17:41:01
(UTC+00:00)

Cosmos 2151 - Pass Details

Date: 11 December 2025
Orbit: 559 x 576 km, 82.5° (Epoch: 22 January)

Event Time Altitude Azimuth Distance (km) Brightness Sun altitude
Rises 17:01:07 0° 355° (N) 2,791 6.2 -6.8°
Reaches altitude 10° 17:03:20 10° 359° (N) 1,891 5.3 -7.1°
Maximum altitude 17:07:27 60° 80° (E) 660 2.9 -7.8°
Drops below altitude 10° 17:11:34 10° 161° (SSE) 1,882 5.6 -8.5°
Sets 17:13:46 0° 165° (SSE) 2,777 6.5 -8.9°
